Sturgeon Bay, WI

11:55 PM CST on January 20, 2018 (GMT -0600)
Door County Cherryland

Weather History for KSUE - February, 2014

Change the Weather History Date:

Wednesday, February 26, 2014

  Actual Average Record
Temperature  
Mean Temperature 2 °F -  
Max Temperature 10 °F 33 °F 51 °F (1998)
Min Temperature -5 °F 14 °F -15 °F (1963)
Degree Days  
Heating Degree Days 62    
Moisture  
Dew Point -9 °F    
Average Humidity 59    
Maximum Humidity 79    
Minimum Humidity 41    
Precipitation  
Precipitation 0.00 in - - ()
Sea Level Pressure  
Sea Level Pressure 29.78 in    
Wind  
Wind Speed 12 mph (WSW)    
Max Wind Speed 22 mph    
Max Gust Speed 31 mph    
Visibility 10 miles    
Events      
Averages and records for this station are not official NWS values.
T = Trace of Precipitation, MM = Missing Value Source: NWS Daily Summary

Daily Weather History Graph

Daily Weather History Graph

Search for Another Location

Airport or City:

Trip Planner

Search our weather history database for the weather conditions in past years. The results will help you decide how hot, cold, wet, or windy it might be!

Date:

Astronomy

Feb. 26, 2014 Rise Set
Actual Time 6:32 AM CST 5:33 PM CST
Civil Twilight 6:03 AM CST 6:02 PM CST
Nautical Twilight 5:29 AM CST 6:36 PM CST
Astronomical Twilight 4:55 AM CST 7:10 PM CST
Moon 4:23 AM CST (2/26) 2:42 PM CST (2/26)
Length of Visible Light 11h 59m
Length of Day
11h 00m
Waning Crescent, 10% of the Moon is Illuminated
Feb 26
Waning Crescent
Mar 1
New
Mar 8
First Quarter
Mar 16
Full
Mar 23
Last Quarter

Hourly Weather History & Observations

Time (CST) Temp. Windchill Dew Point Humidity Pressure Visibility Wind Dir Wind Speed Gust Speed Precip Events Conditions
12:15 AM -0.4 °F -14.7 °F -11.2 °F 60% 30.09 in 10.0 mi WNW 8.1 mph - N/A   Clear
12:35 AM -0.4 °F -15.7 °F -11.2 °F 60% 30.09 in 10.0 mi WNW 9.2 mph - N/A   Clear
12:55 AM -0.4 °F -15.7 °F -11.2 °F 60% 30.09 in 10.0 mi West 9.2 mph - N/A   Clear
1:15 AM -0.4 °F -15.7 °F -11.2 °F 60% 30.09 in 10.0 mi WNW 9.2 mph - N/A   Clear
1:35 AM -0.4 °F -15.7 °F -11.2 °F 60% 30.09 in 10.0 mi West 9.2 mph - N/A   Clear
1:55 AM -0.4 °F -15.7 °F -11.2 °F 60% 30.09 in 10.0 mi West 9.2 mph - N/A   Clear
2:15 AM -0.4 °F -14.7 °F -11.2 °F 60% 30.09 in 10.0 mi West 8.1 mph - N/A   Clear
2:35 AM -2.2 °F -15.6 °F -13.0 °F 60% 30.08 in 10.0 mi West 6.9 mph - N/A   Clear
2:55 AM -4.0 °F -17.8 °F -13.0 °F 65% 30.08 in 10.0 mi West 6.9 mph - N/A   Clear
3:15 AM -4.0 °F -19.0 °F -13.0 °F 65% 30.08 in 10.0 mi West 8.1 mph - N/A   Clear
3:35 AM -4.0 °F -21.2 °F -11.2 °F 71% 30.08 in 10.0 mi West 10.4 mph - N/A   Clear
3:55 AM -4.0 °F -21.2 °F -11.2 °F 71% 30.07 in 10.0 mi West 10.4 mph - N/A   Clear
4:15 AM -4.0 °F -20.2 °F -13.0 °F 65% 30.06 in 10.0 mi West 9.2 mph - N/A   Clear
4:35 AM -5.8 °F -22.4 °F -13.0 °F 71% 30.06 in 10.0 mi West 9.2 mph - N/A   Clear
4:55 AM -5.8 °F -23.4 °F -13.0 °F 71% 30.05 in 10.0 mi West 10.4 mph - N/A   Clear
5:15 AM -5.8 °F -23.4 °F -14.8 °F 65% 30.05 in 10.0 mi West 10.4 mph - N/A   Clear
5:35 AM -5.8 °F -21.2 °F -14.8 °F 65% 30.05 in 10.0 mi West 8.1 mph - N/A   Clear
5:55 AM -5.8 °F -23.4 °F -14.8 °F 65% 30.05 in 10.0 mi West 10.4 mph - N/A   Clear
6:15 AM -5.8 °F -23.4 °F -14.8 °F 65% 30.04 in 10.0 mi West 10.4 mph - N/A   Clear
6:35 AM -5.8 °F -24.4 °F -16.6 °F 60% 30.03 in 10.0 mi WSW 11.5 mph 16.1 mph N/A   Clear
6:55 AM -5.8 °F -23.4 °F -14.8 °F 65% 30.02 in 10.0 mi WSW 10.4 mph - N/A   Clear
7:15 AM -5.8 °F -24.4 °F -14.8 °F 65% 30.01 in 10.0 mi West 11.5 mph - N/A   Clear
7:35 AM -5.8 °F -24.4 °F -14.8 °F 65% 30.01 in 10.0 mi WSW 11.5 mph 18.4 mph N/A   Clear
7:55 AM -5.8 °F -24.4 °F -14.8 °F 65% 30.00 in 10.0 mi WSW 11.5 mph 19.6 mph N/A   Clear
8:15 AM -4.0 °F -23.7 °F -14.8 °F 60% 30.00 in 10.0 mi WSW 13.8 mph 19.6 mph N/A   Scattered Clouds
8:35 AM -5.8 °F -26.0 °F -14.8 °F 65% 29.98 in 10.0 mi WSW 13.8 mph - N/A   Mostly Cloudy
8:55 AM -5.8 °F -26.8 °F -14.8 °F 65% 29.96 in 10.0 mi WSW 15.0 mph - N/A   Overcast
9:15 AM -4.0 °F -25.2 °F -14.8 °F 60% 29.95 in 10.0 mi WSW 16.1 mph 20.7 mph N/A   Overcast
9:35 AM -4.0 °F -23.0 °F -16.6 °F 55% 29.93 in 10.0 mi WSW 12.7 mph 20.7 mph N/A   Overcast
9:55 AM -2.2 °F -20.7 °F -13.0 °F 60% 29.91 in 10.0 mi WSW 12.7 mph 20.7 mph N/A   Mostly Cloudy
10:15 AM -2.2 °F -22.9 °F -14.8 °F 55% 29.90 in 10.0 mi WSW 16.1 mph 23.0 mph N/A   Mostly Cloudy
10:35 AM -0.4 °F -20.5 °F -14.8 °F 51% 29.89 in 10.0 mi SW 16.1 mph 23.0 mph N/A   Partly Cloudy
10:55 AM -0.4 °F -19.2 °F -14.8 °F 51% 29.87 in 10.0 mi SW 13.8 mph 24.2 mph N/A   Scattered Clouds
11:15 AM 1.4 °F -19.9 °F -13.0 °F 51% 29.85 in 10.0 mi SW 19.6 mph - N/A   Overcast
11:35 AM 1.4 °F -19.9 °F -14.8 °F 47% 29.83 in 10.0 mi SW 19.6 mph 24.2 mph N/A   Overcast
11:55 AM 1.4 °F -21.0 °F -14.8 °F 47% 29.81 in 10.0 mi SW 21.9 mph 29.9 mph N/A   Overcast
12:15 PM 1.4 °F -19.4 °F -13.0 °F 51% 29.79 in 10.0 mi SW 18.4 mph 24.2 mph N/A   Overcast
12:35 PM 1.4 °F -20.5 °F -13.0 °F 51% 29.76 in 10.0 mi SW 20.7 mph 27.6 mph N/A   Overcast
12:55 PM 3.2 °F -17.6 °F -11.2 °F 51% 29.73 in 10.0 mi SW 19.6 mph 27.6 mph N/A   Overcast
1:15 PM 3.2 °F -16.5 °F - N/A% 29.72 in 10.0 mi SW 17.3 mph 27.6 mph N/A   Overcast
1:35 PM 5.0 °F -16.2 °F -11.2 °F 47% 29.68 in 10.0 mi SW 21.9 mph 28.8 mph N/A   Overcast
1:55 PM 6.8 °F -13.8 °F -9.4 °F 48% 29.66 in 10.0 mi SW 21.9 mph 31.1 mph N/A   Overcast
2:15 PM 6.8 °F -13.8 °F -9.4 °F 48% 29.63 in 10.0 mi SSW 21.9 mph 27.6 mph N/A   Overcast
2:35 PM 6.8 °F -13.4 °F -9.4 °F 48% 29.60 in 10.0 mi SW 20.7 mph 29.9 mph N/A   Overcast
2:55 PM 6.8 °F -12.9 °F -9.4 °F 48% 29.57 in 10.0 mi SW 19.6 mph 29.9 mph N/A   Overcast
3:15 PM 8.6 °F -11.0 °F -9.4 °F 44% 29.57 in 10.0 mi SW 20.7 mph 28.8 mph N/A   Overcast
3:35 PM 8.6 °F -7.0 °F -7.6 °F 48% 29.58 in 10.0 mi SW 12.7 mph 27.6 mph N/A   Overcast
3:55 PM 8.6 °F -9.5 °F -9.4 °F 44% 29.55 in 10.0 mi SW 17.3 mph 31.1 mph N/A   Overcast
4:15 PM 10.4 °F -8.6 °F -9.4 °F 41% 29.53 in 10.0 mi SW 20.7 mph 28.8 mph N/A   Mostly Cloudy
4:35 PM 10.4 °F -8.2 °F -9.4 °F 41% 29.52 in 10.0 mi SW 19.6 mph 27.6 mph N/A   Partly Cloudy
4:55 PM 10.4 °F -8.6 °F -9.4 °F 41% 29.53 in 10.0 mi WSW 20.7 mph 27.6 mph N/A   Partly Cloudy
5:15 PM 8.6 °F -10.0 °F -9.4 °F 44% 29.53 in 10.0 mi WSW 18.4 mph 25.3 mph N/A   Mostly Cloudy
5:35 PM 8.6 °F -8.3 °F -7.6 °F 48% 29.53 in 10.0 mi WSW 15.0 mph - N/A   Overcast
5:55 PM 10.4 °F -6.0 °F -7.6 °F 44% 29.53 in 10.0 mi WSW 15.0 mph 21.9 mph N/A   Overcast
6:15 PM 10.4 °F -6.6 °F -5.8 °F 48% 29.53 in 10.0 mi WSW 16.1 mph 29.9 mph N/A   Overcast
6:35 PM 10.4 °F -8.2 °F -4.0 °F 52% 29.53 in 10.0 mi WSW 19.6 mph 26.5 mph N/A   Overcast
6:55 PM 10.4 °F -7.2 °F -2.2 °F 57% 29.53 in 10.0 mi WSW 17.3 mph 24.2 mph N/A   Overcast
7:15 PM 10.4 °F -7.7 °F -2.2 °F 57% 29.52 in 10.0 mi WSW 18.4 mph 24.2 mph N/A   Overcast
7:35 PM 8.6 °F -6.3 °F -2.2 °F 62% 29.52 in 10.0 mi WSW 11.5 mph 18.4 mph N/A   Overcast
7:55 PM 8.6 °F -7.0 °F -2.2 °F 62% 29.51 in 10.0 mi WSW 12.7 mph - N/A   Mostly Cloudy
8:15 PM 8.6 °F -8.3 °F -2.2 °F 62% 29.50 in 10.0 mi WSW 15.0 mph - N/A   Partly Cloudy
8:35 PM 8.6 °F -7.7 °F -0.4 °F 67% 29.50 in 10.0 mi WSW 13.8 mph - N/A   Partly Cloudy
8:55 PM 8.6 °F -7.0 °F -0.4 °F 67% 29.49 in 8.0 mi WSW 12.7 mph - N/A   Scattered Clouds
9:15 PM 8.6 °F -8.3 °F 1.4 °F 73% 29.49 in 10.0 mi WSW 15.0 mph - N/A   Mostly Cloudy
9:35 PM 6.8 °F -8.6 °F 1.4 °F 79% 29.49 in 10.0 mi WSW 11.5 mph - N/A   Mostly Cloudy
9:55 PM 6.8 °F -9.3 °F 1.4 °F 79% 29.49 in 2.5 mi WSW 12.7 mph - N/A   Mostly Cloudy
10:15 PM 6.8 °F -8.6 °F 1.4 °F 79% 29.48 in 7.0 mi WSW 11.5 mph - N/A   Overcast
10:35 PM 8.6 °F -6.3 °F 3.2 °F 79% 29.49 in 10.0 mi West 11.5 mph - N/A   Scattered Clouds
10:55 PM 6.8 °F -8.6 °F 1.4 °F 79% 29.49 in 10.0 mi West 11.5 mph - N/A   Mostly Cloudy
11:15 PM 8.6 °F -8.3 °F 1.4 °F 73% 29.51 in 10.0 mi WNW 15.0 mph 23.0 mph N/A   Overcast
11:35 PM 6.8 °F -8.6 °F -0.4 °F 72% 29.51 in 10.0 mi WNW 11.5 mph - N/A   Scattered Clouds
11:55 PM 5.0 °F -10.0 °F -0.4 °F 78% 29.52 in 10.0 mi WNW 10.4 mph - N/A   Scattered Clouds